Huntingburg, IN

3:06 PM EDT on July 22, 2017 (GMT -0400)
Huntingburg

Weather History for KHNB - December, 2014

Change the Weather History Date:

Monday, December 1, 2014

  Actual Average Record
Temperature  
Mean Temperature 40 °F -  
Max Temperature 46 °F 47 °F 62 °F (2012)
Min Temperature 33 °F 33 °F 15 °F (2002)
Degree Days  
Heating Degree Days 24    
Moisture  
Dew Point 31 °F    
Average Humidity 82    
Maximum Humidity 93    
Minimum Humidity 75    
Precipitation  
Precipitation 0.24 in - - ()
Sea Level Pressure  
Sea Level Pressure 30.41 in    
Wind  
Wind Speed 11 mph (North)    
Max Wind Speed 17 mph    
Max Gust Speed 26 mph    
Visibility 7 miles    
Events      
Averages and records for this station are not official NWS values.
T = Trace of Precipitation, MM = Missing Value Source: NWS Daily Summary

Daily Weather History Graph

Daily Weather History Graph

Search for Another Location

Airport or City:

Trip Planner

Search our weather history database for the weather conditions in past years. The results will help you decide how hot, cold, wet, or windy it might be!

Date:

Astronomy

Dec. 01, 2014 Rise Set
Actual Time 7:45 AM EST 5:27 PM EST
Civil Twilight 7:16 AM EST 5:57 PM EST
Nautical Twilight 6:43 AM EST 6:29 PM EST
Astronomical Twilight 6:11 AM EST 7:01 PM EST
Moon 2:29 PM EST (12/1) 2:26 AM EST (12/1)
Length of Visible Light 10h 40m
Length of Day
9h 42m
Waxing Gibbous, 75% of the Moon is Illuminated
Dec 1
Waxing Gibbous
Dec 6
Full
Dec 14
Last Quarter
Dec 21
New
Dec 28
First Quarter

Hourly Weather History & Observations

Time (EST) Temp. Windchill Dew Point Humidity Pressure Visibility Wind Dir Wind Speed Gust Speed Precip Events Conditions
12:15 AM 48.2 °F - 42.8 °F 82% 30.17 in 5.0 mi NNW 11.5 mph - 0.02 in   Overcast
12:35 AM 46.4 °F 40.7 °F 42.8 °F 87% 30.18 in 5.0 mi NNW 12.7 mph - 0.02 in   Overcast
12:55 AM 46.4 °F 41.5 °F 42.8 °F 87% 30.19 in 5.0 mi NNW 10.4 mph 17.3 mph 0.02 in   Overcast
1:15 AM 44.6 °F 38.1 °F 39.2 °F 81% 30.20 in 4.0 mi NNW 13.8 mph - N/A   Overcast
1:35 AM 44.6 °F 38.8 °F 39.2 °F 81% 30.21 in 3.0 mi NW 11.5 mph - 0.03 in   Overcast
1:55 AM 42.8 °F 35.8 °F 37.4 °F 81% 30.21 in 3.0 mi NNW 13.8 mph 18.4 mph 0.04 in   Overcast
2:15 AM 41.0 °F 34.7 °F 37.4 °F 87% 30.22 in 3.0 mi NNW 10.4 mph - 0.01 in   Overcast
2:35 AM 41.0 °F 34.3 °F 35.6 °F 81% 30.24 in 3.0 mi NNW 11.5 mph 20.7 mph 0.01 in   Overcast
2:55 AM 39.2 °F 31.2 °F 35.6 °F 87% 30.26 in 3.0 mi NW 13.8 mph - 0.01 in   Overcast
3:15 AM 39.2 °F 31.2 °F 33.8 °F 81% 30.26 in 3.0 mi NNW 13.8 mph 20.7 mph N/A   Overcast
3:35 AM 37.4 °F 29.8 °F 33.8 °F 87% 30.27 in 3.0 mi North 11.5 mph 17.3 mph N/A   Overcast
3:55 AM 37.4 °F 30.8 °F 33.8 °F 87% 30.27 in 2.5 mi NNW 9.2 mph - N/A   Overcast
4:15 AM 37.4 °F 30.8 °F 33.8 °F 87% 30.29 in 2.5 mi NW 9.2 mph 18.4 mph N/A   Overcast
4:35 AM 37.4 °F 30.8 °F 33.8 °F 87% 30.29 in 2.5 mi North 9.2 mph - N/A   Overcast
4:55 AM 37.4 °F 29.8 °F 33.8 °F 87% 30.30 in 3.0 mi NNW 11.5 mph - N/A   Overcast
5:15 AM 37.4 °F 29.8 °F 33.8 °F 87% 30.30 in 4.0 mi NNW 11.5 mph 18.4 mph N/A   Overcast
5:35 AM 37.4 °F 29.8 °F 33.8 °F 87% 30.32 in 5.0 mi NNW 11.5 mph 17.3 mph N/A   Overcast
5:55 AM 37.4 °F 29.8 °F 33.8 °F 87% 30.32 in 4.0 mi North 11.5 mph - 0.02 in   Overcast
6:15 AM 37.4 °F 29.8 °F 33.8 °F 87% 30.33 in 3.0 mi North 11.5 mph - N/A   Overcast
6:35 AM 35.6 °F 28.0 °F 33.8 °F 93% 30.35 in 3.0 mi NNW 10.4 mph 16.1 mph N/A   Overcast
6:55 AM 35.6 °F 28.0 °F 32.0 °F 87% 30.36 in 2.5 mi North 10.4 mph 18.4 mph N/A   Overcast
7:15 AM 35.6 °F 27.1 °F 32.0 °F 87% 30.36 in 2.5 mi North 12.7 mph 17.3 mph 0.07 in   Overcast
7:35 AM 35.6 °F 29.2 °F 32.0 °F 87% 30.38 in 4.0 mi North 8.1 mph 16.1 mph 0.08 in   Overcast
7:55 AM 35.6 °F 27.1 °F 32.0 °F 87% 30.40 in 5.0 mi NNW 12.7 mph 20.7 mph 0.08 in   Overcast
8:15 AM 35.6 °F 27.1 °F 30.2 °F 81% 30.40 in 4.0 mi NNW 12.7 mph - N/A   Overcast
8:35 AM 35.6 °F 28.6 °F 30.2 °F 81% 30.40 in 4.0 mi North 9.2 mph - N/A   Overcast
8:55 AM 35.6 °F 28.6 °F 32.0 °F 87% 30.42 in 4.0 mi North 9.2 mph - N/A   Overcast
9:15 AM 35.6 °F 28.6 °F 32.0 °F 87% 30.43 in 7.0 mi North 9.2 mph - N/A   Overcast
9:35 AM 35.6 °F 29.2 °F 30.2 °F 81% 30.44 in 10.0 mi North 8.1 mph - N/A   Overcast
9:55 AM 35.6 °F 28.0 °F 32.0 °F 87% 30.44 in 10.0 mi North 10.4 mph - N/A   Overcast
10:15 AM 35.6 °F 28.6 °F 32.0 °F 87% 30.45 in 10.0 mi North 9.2 mph - N/A   Overcast
10:35 AM 35.6 °F 27.1 °F 32.0 °F 87% 30.47 in 10.0 mi NNW 12.7 mph - N/A   Overcast
10:55 AM 35.6 °F 28.6 °F 32.0 °F 87% 30.47 in 8.0 mi NNW 9.2 mph 18.4 mph N/A   Overcast
11:15 AM 35.6 °F 27.1 °F 32.0 °F 87% 30.47 in 5.0 mi North 12.7 mph 16.1 mph 0.01 in   Overcast
11:35 AM 35.6 °F 27.1 °F 32.0 °F 87% 30.48 in 7.0 mi NNE 12.7 mph 21.9 mph 0.02 in   Overcast
11:55 AM 35.6 °F 26.2 °F 32.0 °F 87% 30.47 in 7.0 mi North 15.0 mph 20.7 mph 0.02 in   Overcast
12:15 PM 35.6 °F 27.1 °F 30.2 °F 81% 30.46 in 4.0 mi North 12.7 mph - 0.03 in   Overcast
12:35 PM 35.6 °F 26.6 °F 30.2 °F 81% 30.45 in 10.0 mi NNE 13.8 mph 26.5 mph 0.03 in   Overcast
12:55 PM 35.6 °F 26.6 °F 30.2 °F 81% 30.46 in 9.0 mi NNE 13.8 mph 20.7 mph 0.03 in   Overcast
1:15 PM 35.6 °F 27.5 °F 30.2 °F 81% 30.47 in 9.0 mi North 11.5 mph - N/A   Overcast
1:35 PM 35.6 °F 26.2 °F 30.2 °F 81% 30.46 in 10.0 mi North 15.0 mph - N/A   Overcast
1:55 PM 33.8 °F 23.2 °F 28.4 °F 81% 30.45 in 10.0 mi North 17.3 mph 21.9 mph N/A   Overcast
2:15 PM 33.8 °F 24.8 °F 28.4 °F 81% 30.46 in 8.0 mi NNE 12.7 mph 18.4 mph 0.01 in   Overcast
2:35 PM 33.8 °F 23.9 °F 28.4 °F 81% 30.46 in 9.0 mi NNE 15.0 mph - 0.01 in   Overcast
2:55 PM 33.8 °F 25.3 °F 28.4 °F 81% 30.48 in 9.0 mi North 11.5 mph - 0.01 in   Overcast
3:15 PM 33.8 °F 24.3 °F 28.4 °F 81% 30.47 in 10.0 mi NNE 13.8 mph 18.4 mph N/A   Overcast
3:35 PM 33.8 °F 24.3 °F 28.4 °F 81% 30.47 in 10.0 mi NNE 13.8 mph - N/A   Overcast
3:55 PM 33.8 °F 23.2 °F 26.6 °F 75% 30.47 in 10.0 mi NE 17.3 mph - N/A   Overcast
4:15 PM 33.8 °F 25.3 °F 28.4 °F 81% 30.48 in 10.0 mi NNE 11.5 mph - N/A   Overcast
4:35 PM 33.8 °F 25.8 °F 28.4 °F 81% 30.48 in 10.0 mi NNE 10.4 mph - N/A   Overcast
4:55 PM 33.8 °F 25.3 °F 28.4 °F 81% 30.49 in 10.0 mi NNE 11.5 mph - N/A   Overcast
5:15 PM 33.8 °F 25.3 °F 28.4 °F 81% 30.49 in 10.0 mi NNE 11.5 mph - N/A   Overcast
5:35 PM 33.8 °F 25.3 °F 26.6 °F 75% 30.50 in 10.0 mi NNE 11.5 mph - N/A   Overcast
5:55 PM 33.8 °F 25.3 °F 26.6 °F 75% 30.51 in 10.0 mi NNE 11.5 mph - N/A   Overcast
6:15 PM 33.8 °F 26.4 °F 26.6 °F 75% 30.52 in 10.0 mi NNE 9.2 mph - N/A   Overcast
6:35 PM 33.8 °F 25.8 °F 26.6 °F 75% 30.52 in 10.0 mi NNE 10.4 mph - N/A   Overcast
6:55 PM 33.8 °F 25.8 °F 26.6 °F 75% 30.52 in 10.0 mi NNE 10.4 mph - N/A   Overcast
7:15 PM 33.8 °F 24.8 °F 26.6 °F 75% 30.51 in 8.0 mi NNE 12.7 mph - 0.01 in   Mostly Cloudy
7:35 PM 33.8 °F 27.0 °F 26.6 °F 75% 30.53 in 10.0 mi NNE 8.1 mph - 0.01 in   Mostly Cloudy
7:55 PM 33.8 °F 25.8 °F 26.6 °F 75% 30.52 in 10.0 mi NE 10.4 mph - 0.01 in   Overcast
8:15 PM 33.8 °F 25.3 °F 26.6 °F 75% 30.51 in 10.0 mi NE 11.5 mph - N/A   Overcast
8:35 PM 33.8 °F 27.0 °F 26.6 °F 75% 30.51 in 10.0 mi NE 8.1 mph - N/A   Overcast
8:55 PM 33.8 °F 25.8 °F 26.6 °F 75% 30.50 in 10.0 mi NE 10.4 mph - N/A   Overcast
9:15 PM 33.8 °F 26.4 °F 26.6 °F 75% 30.49 in 10.0 mi NE 9.2 mph - N/A   Overcast
9:35 PM 33.8 °F 25.8 °F 26.6 °F 75% 30.48 in 10.0 mi NE 10.4 mph - N/A   Overcast
9:55 PM 33.8 °F 28.6 °F 26.6 °F 75% 30.50 in 10.0 mi NNE 5.8 mph - N/A   Overcast
10:15 PM 33.8 °F 25.8 °F 26.6 °F 75% 30.48 in 10.0 mi NE 10.4 mph - N/A   Overcast
10:35 PM 33.8 °F 25.3 °F 26.6 °F 75% 30.45 in 10.0 mi NE 11.5 mph - N/A   Overcast
10:55 PM 33.8 °F 29.6 °F 26.6 °F 75% 30.46 in 10.0 mi NE 4.6 mph - N/A   Mostly Cloudy
11:15 PM 33.8 °F 27.0 °F 26.6 °F 75% 30.47 in 10.0 mi North 8.1 mph - N/A   Overcast
11:35 PM 33.8 °F 25.8 °F 26.6 °F 75% 30.44 in 10.0 mi NE 10.4 mph - N/A   Overcast
11:55 PM 33.8 °F 27.0 °F 26.6 °F 75% 30.44 in 10.0 mi NE 8.1 mph - N/A   Mostly Cloudy